Hourly Weather Roundup
Issued by NWS Central Illinois

Home | Current Version | Previous Version | Text Only | Print | Product List | Glossary On
Versions: 1 2 3 4 5 6 7 8 9 10 11 12 13 14 15 16 17 18 19 20 21 22 23 24 25 26 27 28 29 30 31 32 33 34 35 36 37 38 39 40 41 42 43 44 45 46 47 48 49 50
000
NZUS43 KILX 290310
HWRILX

Area Weather Roundup
National Weather Service Lincoln IL
1000 PM CDT WED JUN 28 2017

NOTE:  "FAIR" indicates few or no clouds below 12,000 feet, with
       no sigificant weather and/or obstructions to visibility.


CITY           SKY/WX    TMP DP  RH WIND       PRES   REMARKS
Bloomington    CLOUDY    76  63  64 S18G26    29.85R
Champaign      CLOUDY    76  62  62 S14       29.90R
Danville       CLOUDY    74  61  64 S13       29.89R
Decatur        CLOUDY    77  61  57 S14       29.89R
Effingham      CLOUDY    75  65  69 SE7       29.94S
Flora          CLEAR     75  66  73 S8        29.96R
Galesburg      MOCLDY    78  63  60 S24G31    29.74S HX  80
Jacksonville   MOCLDY    79  60  52 S13       29.84R HX  80
Lacon          CLOUDY    78  64  61 S15G26    29.75F HX  80
Lawrenceville  CLEAR     68  63  84 S8        29.97R
Litchfield     MOCLDY    76  64  67 S12G20    29.89S
$$


CITY           SKY/WX    TMP DP  RH WIND       PRES   REMARKS
Lincoln        CLOUDY    79  63  58 S13G20    29.84S HX  80
Macomb         MOCLDY    79  62  55 S15G22    29.80S HX  80
Mattoon        CLOUDY    75  65  70 S12       29.92R
Mt Carmel AP   CLOUDY    72  62  71 S8        29.97R
Olney-Noble AP CLEAR     73  69  87 S7        29.96S
Paris AP       CLEAR     72  63  73 S9        29.94R
Peoria         CLOUDY    78  63  59 S18       29.79S HX  80
Pontiac        CLOUDY    78  64  61 S15G21    29.84R HX  80
Rantoul        CLOUDY    77  64  64 S10G20    29.89R
Robinson       CLEAR     68  62  79 S6        29.97R
Springfield    CLOUDY    79  64  60 S18G25    29.85R HX  81
Taylorville    CLOUDY    76  62  62 S12       29.88S
$$

...REGIONAL REPORTS...


CITY           SKY/WX    TMP DP  RH WIND       PRES   REMARKS
Chicago O`Hare LGT RAIN  74  62  66 N12       29.82R
Kankakee       CLOUDY    77  61  57 SW13G18   29.87R
Moline         CLOUDY    80  64  58 S16       29.68R HX  82
Mount Sterling MOCLDY    77  62  61 S7        29.83R
Mount Vernon   CLOUDY    74  65  73 S6        29.96R
Pittsfield     CLOUDY    78  65  62 S9        29.85R HX  80
Quincy         CLOUDY    79  63  57 S10       29.82R HX  80
Rockford       TSTM      68  66  93 NE14      29.79F FOG
$$


CITY           SKY/WX    TMP DP  RH WIND       PRES   REMARKS
Burlington     LGT RAIN  76  70  82 S24G32    29.70F
Cedar Rapids   CLOUDY    72  71  97 NW9       29.72R
Des Moines     CLOUDY    72  64  76 SW8       29.67R
Kirksville     TSTM      69  64  84 NE15G51   29.86R VSB 3/4
Ottumwa        CLOUDY    77  68  73 SW12      29.68R
St Louis       CLOUDY    83  63  50 S15       29.89S HX  84
$$


CITY           SKY/WX    TMP DP  RH WIND       PRES   REMARKS
Terre Haute    CLEAR     74  59  59 S9        29.95S
Evansville     MOCLDY    76  61  59 S7        29.98R
Indianapolis   PTCLDY    70  57  63 S12       29.97R
Lafayette      CLEAR     72  60  66 S9        29.91R
Madison        TSTM      66  63  90 S13       29.71R
Milwaukee      TSTM      66  64  93 S16G24    29.77F
$$





USA.gov is the U.S. government's official web portal to all federal, state and local government web resources and services.